Flag for U.S.A. Weather past 2 weeks in Wake Island, Wake Island, U.S.A.

Now
85 °F

Sunny.


Feels Like: 93 °F
Forecast: 85 / 88 °F
Wind: 7 mph from Southeast

Location: Wake Island Airfld

Current Time: Jul 29, 2014 at 7:42:12 PM

Latest Report: Jul 29, 2014 at 6:58 PM


Visibility: N/A

Pressure: 29.96 "Hg

Humidity: 70%

Dew point: 74 °F

Location of Wake IslandLocation

Historic Weather in Wake Island — Graph

°F

Wake Island temperature yesterday

Maximum temperature yesterday: 88 °F (at 4:03 PM)
Minimum temperature yesterday: 79 °F (at 2:04 AM)
Average temperature yesterday: 83 °F

Past Weeks' High & Low Weather Summary

 TemperatureHumidityPressure
High90 °F (Jul 17, 2:55 PM)94% (Jul 18, 5:04 AM)30.03 "Hg (Jul 18, 5:04 AM)
Low78 °F (Jul 26, 5:58 AM)57% (Jul 24, 2:58 PM)29.83 "Hg (Jul 17, 3:55 PM)
Average84 °F76%29.93 "Hg
* Reported Jul 14 6:58 PM — Jul 29 6:58 PM, Wake Island, Weather by CustomWeather, © 2014

Note: Actual official high and low records may vary slightly from our data, if they occured in-between our weather recording intervals... More about our weather records

Advertising

Wake Island weather history for previous 24 hours

 ConditionsComfort  
Time TempWeatherWind HumidityBarometerVisibility
6:58 PM
Jul 29
85 °FSunny.7 mph70%29.96 "HgN/A
5:58 PM86 °FSunny.9 mph66%29.94 "HgN/A
4:58 PM87 °FSunny.13 mph67%29.93 "HgN/A
3:58 PM89 °FSunny.12 mph65%29.93 "HgN/A
2:58 PM89 °FSunny.10 mph63%29.94 "HgN/A
1:58 PM88 °FPassing clouds.13 mph67%29.95 "HgN/A
12:58 PM89 °FPassing clouds.12 mph65%29.97 "HgN/A
11:58 AM89 °FPassing clouds.10 mph66%29.98 "HgN/A
10:58 AM87 °FScattered clouds.12 mph70%29.99 "HgN/A
9:58 AM87 °FPassing clouds.12 mph70%29.99 "HgN/A
8:58 AM86 °FPassing clouds.12 mph71%29.98 "HgN/A
7:58 AM84 °FPassing clouds.7 mph74%29.97 "HgN/A
6:58 AM83 °FPassing clouds.7 mph76%29.95 "HgN/A
5:58 AM82 °FPassing clouds.7 mph79%29.94 "HgN/A
4:58 AM82 °FPassing clouds.6 mph81%29.94 "HgN/A
3:58 AM82 °FPassing clouds.6 mph81%29.94 "HgN/A
2:58 AM82 °FClear.6 mph78%29.95 "HgN/A
1:58 AM83 °FPassing clouds.6 mph79%29.96 "HgN/A
12:58 AM83 °FPassing clouds.8 mph78%29.97 "HgN/A
11:58 PM
Jul 28
83 °FClear.6 mph75%29.99 "HgN/A
10:58 PM83 °FClear.10 mph75%29.99 "HgN/A
9:58 PM84 °FPartly cloudy.7 mph78%29.98 "HgN/A
8:58 PM84 °FClear.7 mph77%29.96 "HgN/A
7:58 PM84 °FSunny.8 mph77%29.95 "HgN/A
Weather by CustomWeather, © 2014

See weather overviewHow to use our weather pages